Waarnemingen

Advertentie
Mijn weer
Guernsey, Groot Brittannië (3894): temperatuur & dauwpunt: 26.03.2020 16:00:00 - 01.04.2020 16:00:00 (BST)Guernsey, Groot Brittannië (3894): temperatuur -20cm & temperatuur -100cm: 26.03.2020 16:00:00 - 01.04.2020 16:00:00 (BST)Guernsey, Groot Brittannië (3894): windsnelheid & windstoten: 26.03.2020 16:00:00 - 01.04.2020 16:00:00 (BST)Guernsey, Groot Brittannië (3894): windrichting: 26.03.2020 16:00:00 - 01.04.2020 16:00:00 (BST)Guernsey, Groot Brittannië (3894): luchtdruk: 26.03.2020 16:00:00 - 01.04.2020 16:00:00 (BST)Guernsey, Groot Brittannië (3894): zicht: 26.03.2020 16:00:00 - 01.04.2020 16:00:00 (BST)Guernsey, Groot Brittannië (3894): neerslag: 26.03.2020 16:00:00 - 01.04.2020 16:00:00 (BST)
Datum & Tijd tt [°C] td [°C] tt -20cm [°C] tt -100cm [°C] ff [km/u] ff [kn] fx [km/u] fx [kn] dd ppp [hPa] vv [km] rr [mm]
01.04.2020 16:00:00 7,8 2,9 - - 18 10 - - NNO 1021,7 10 -
01.04.2020 15:00:00 8,1 3,3 - - 22 12 - - NO 1022,1 20 -
01.04.2020 14:00:00 8,1 3,1 - - 22 12 - - NO 1022,5 10 -
01.04.2020 13:00:00 8,9 1,2 - - 21 11 - - NO 1022,9 10 0,0
01.04.2020 12:00:00 8,6 2,2 - - 18 10 - - NO 1023,5 23 -
01.04.2020 11:00:00 8,4 1,9 - - 21 11 - - ONO 1023,8 10 -
01.04.2020 10:00:00 7,7 2,2 8,0 9,4 21 11 - - ONO 1024,3 10 -
01.04.2020 09:00:00 7,2 2,5 - - 15 8 - - ONO 1024,0 10 -
01.04.2020 08:00:00 5,8 2,6 - - 15 8 - - ONO 1024,4 20 -
01.04.2020 07:00:00 5,1 1,9 - - 16 9 - - ONO 1024,2 10 0,0
01.04.2020 06:00:00 5,3 1,5 - - 18 10 - - ONO 1024,3 10 -
01.04.2020 05:00:00 4,9 1,9 - - 18 10 - - ONO 1024,4 10 -
01.04.2020 04:00:00 5,1 2,1 - - 18 10 - - ONO 1024,9 10 -
01.04.2020 03:00:00 5,3 2,1 - - 22 12 - - ONO 1025,4 10 -
01.04.2020 02:00:00 5,4 1,8 - - 21 11 - - ONO 1026,0 10 -
01.04.2020 01:00:00 5,6 0,6 - - 22 12 - - ONO 1026,1 10 0,0
01.04.2020 00:00:00 5,9 -0,6 - - 21 11 46 25 ONO 1026,6 10 -
31.03.2020 23:00:00 6,3 -1,8 - - 29 16 48 26 ONO 1026,8 10 -
31.03.2020 22:00:00 6,5 -1,1 - - 31 17 50 27 ONO 1026,8 10 -
31.03.2020 21:00:00 6,8 -1,4 - - 31 17 55 30 ONO 1027,0 10 -
31.03.2020 20:00:00 6,6 -1,8 - - 34 18 57 31 ONO 1026,9 10 -
31.03.2020 19:00:00 6,8 0,5 - - 29 16 54 29 ONO 1026,9 10 -
31.03.2020 18:00:00 7,5 0,4 - - 34 18 61 33 ONO 1026,6 10 -
31.03.2020 17:00:00 8,0 1,0 - - 35 19 61 33 ONO 1026,5 10 -
31.03.2020 16:00:00 8,2 1,3 - - 34 18 50 27 NO 1026,9 10 -
31.03.2020 15:00:00 8,6 1,5 - - 31 17 52 28 NO 1027,7 10 -
31.03.2020 14:00:00 8,9 1,4 - - 29 16 48 26 ONO 1028,5 10 -
31.03.2020 13:00:00 8,1 3,2 - - 28 15 46 25 ONO 1028,6 10 -
31.03.2020 12:00:00 7,9 3,8 - - 29 16 - - ONO 1028,9 10 -
31.03.2020 11:00:00 6,9 4,2 - - 28 15 52 28 ONO 1029,3 10 -
31.03.2020 10:00:00 6,8 3,0 8,0 9,5 24 13 52 28 NO 1029,4 10 -
31.03.2020 09:00:00 6,6 2,9 - - 26 14 - - ONO 1029,3 10 -
31.03.2020 08:00:00 6,2 2,7 - - 26 14 - - NO 1029,1 10 -
31.03.2020 07:00:00 6,3 2,2 - - 22 12 46 25 NO 1028,6 10 -
31.03.2020 06:00:00 6,4 2,7 - - 29 16 48 26 NO 1028,4 40 -
31.03.2020 05:00:00 6,3 1,2 - - 28 15 48 26 ONO 1028,4 10 -
31.03.2020 04:00:00 6,2 1,8 - - 26 14 52 28 NO 1028,0 10 -
31.03.2020 03:00:00 6,3 3,5 - - 22 12 - - NO 1028,6 10 -
31.03.2020 02:00:00 6,6 3,7 - - 22 12 - - NO 1028,8 10 -
31.03.2020 01:00:00 6,7 3,7 - - 24 13 - - NO 1029,3 10 -
31.03.2020 00:00:00 7,3 2,3 - - 22 12 50 27 NO 1029,3 45 -
30.03.2020 23:00:00 7,0 2,0 - - 28 15 52 28 NO 1029,7 10 -
30.03.2020 22:00:00 7,2 2,7 - - 28 15 48 26 NO 1029,5 10 -
30.03.2020 21:00:00 7,1 1,7 - - 24 13 48 26 NO 1029,5 10 -
30.03.2020 20:00:00 6,8 1,0 - - 26 14 - - NO 1029,3 10 -
30.03.2020 19:00:00 6,9 1,0 - - 24 13 - - NO 1029,2 10 -
30.03.2020 18:00:00 7,0 1,3 - - 24 13 48 26 NO 1029,6 10 -
30.03.2020 17:00:00 6,9 1,7 - - 26 14 - - NO 1030,1 45 -
30.03.2020 16:00:00 7,4 0,9 - - 24 13 - - NNO 1030,5 10 -
30.03.2020 15:00:00 7,1 -0,1 - - 26 14 50 27 NNO 1031,4 10 -
30.03.2020 14:00:00 7,3 0,2 - - 28 15 61 33 NO 1032,3 10 -
30.03.2020 13:00:00 6,9 -0,7 - - 31 17 48 26 NNO 1032,6 40 -
30.03.2020 12:00:00 6,3 -1,2 - - 28 15 48 26 NO 1033,4 10 -
30.03.2020 11:00:00 5,6 -1,9 - - 26 14 50 27 NO 1034,0 10 -
30.03.2020 10:00:00 4,9 -2,2 7,9 9,7 28 15 50 27 NO 1034,0 35 -
30.03.2020 09:00:00 4,3 -1,9 - - 26 14 46 25 NO 1034,6 10 -
30.03.2020 08:00:00 4,4 -2,9 - - 28 15 54 29 NO 1034,9 10 -
30.03.2020 07:00:00 4,3 -3,5 - - 26 14 48 26 NO 1034,8 10 -
30.03.2020 06:00:00 4,2 -4,1 - - 28 15 48 26 NO 1034,7 10 -
30.03.2020 05:00:00 4,3 -4,3 - - 31 17 54 29 NO 1034,6 10 -
30.03.2020 04:00:00 4,2 -4,4 - - 26 14 55 30 NO 1035,1 10 -
30.03.2020 03:00:00 4,4 -5,4 - - 28 15 55 30 NO 1035,7 10 -
30.03.2020 02:00:00 4,3 -5,9 - - 31 17 61 33 NO 1036,1 35 -
30.03.2020 01:00:00 4,3 -6,8 - - 34 18 65 35 NO 1036,6 10 0,0
30.03.2020 00:00:00 4,6 -5,1 - - 29 16 59 32 NO 1037,1 10 -
29.03.2020 23:00:00 5,1 -5,5 - - 31 17 63 34 NNO 1036,7 10 -
29.03.2020 22:00:00 5,6 -5,4 - - 31 17 59 32 NO 1036,3 10 -
29.03.2020 21:00:00 5,7 -2,7 - - 29 16 57 31 NO 1036,0 35 -
29.03.2020 20:00:00 5,3 -0,8 - - 31 17 55 30 NO 1035,9 10 -
29.03.2020 19:00:00 5,1 -0,6 - - 34 18 63 34 NO 1035,9 10 -
29.03.2020 18:00:00 6,0 -0,1 - - 34 18 55 30 NO 1035,5 25 -
29.03.2020 17:00:00 5,8 0,4 - - 31 17 57 31 NO 1035,4 10 -
29.03.2020 16:00:00 6,7 -2,8 - - 31 17 63 34 NNO 1034,9 30 -
29.03.2020 15:00:00 7,5 -3,0 - - 37 20 67 36 NO 1034,9 10 -
29.03.2020 14:00:00 7,5 -3,2 - - 31 17 61 33 NO 1035,3 10 -
29.03.2020 13:00:00 7,4 -2,8 - - 31 17 61 33 NO 1035,3 10 -
29.03.2020 12:00:00 5,7 -4,2 - - 35 19 67 36 NO 1035,2 35 -
29.03.2020 11:00:00 4,9 -3,4 - - 35 19 59 32 NO 1035,2 35 -
29.03.2020 10:00:00 4,9 -2,5 8,7 9,7 34 18 63 34 NNO 1034,7 35 -
29.03.2020 09:00:00 5,1 -5,2 - - 34 18 63 34 NO 1034,7 10 -
29.03.2020 08:00:00 5,0 -4,9 - - 31 17 55 30 NO 1034,3 35 -
29.03.2020 07:00:00 5,2 -2,1 - - 34 18 67 36 NO 1033,6 10 0,0
29.03.2020 06:00:00 5,3 -2,4 - - 35 19 65 35 NO 1032,6 10 -
29.03.2020 05:00:00 5,7 -0,3 - - 35 19 63 34 NO 1032,3 27 -
29.03.2020 04:00:00 6,1 0,5 - - 35 19 61 33 NO 1031,9 10 -
29.03.2020 03:00:00 6,2 0,2 - - 34 18 61 33 NO 1031,7 25 -
29.03.2020 02:00:00 6,5 -0,1 - - 35 19 63 34 NO 1031,3 10 -
29.03.2020 01:00:00 6,8 -0,2 - - 37 20 67 36 NO 1030,8 10 0,0
29.03.2020 00:00:00 7,6 0,3 - - 35 19 63 34 NO 1029,8 10 -
28.03.2020 23:00:00 7,9 0,0 - - 39 21 68 37 NO 1029,6 10 -
28.03.2020 22:00:00 8,2 1,5 - - 41 22 63 34 NO 1029,0 10 -
28.03.2020 21:00:00 8,6 2,5 - - 35 19 63 34 NO 1028,5 10 -
28.03.2020 20:00:00 8,2 3,3 - - 39 21 67 36 NO 1027,7 10 -
28.03.2020 19:00:00 8,9 3,6 - - 35 19 61 33 NO 1026,4 10 0,0
28.03.2020 18:00:00 9,6 4,1 - - 28 15 54 29 NO 1025,9 10 -
28.03.2020 17:00:00 10,4 4,3 - - 28 15 54 29 NO 1025,1 10 -
28.03.2020 16:00:00 10,5 4,0 - - 26 14 54 29 NO 1025,3 10 -
28.03.2020 15:00:00 9,7 3,6 - - 31 17 54 29 NO 1025,2 10 -
28.03.2020 14:00:00 8,6 4,4 - - 26 14 46 25 NO 1025,2 10 -
28.03.2020 13:00:00 7,7 4,3 - - 28 15 - - NO 1025,3 10 0,0
28.03.2020 12:00:00 7,6 4,2 - - 26 14 - - NO 1025,2 10 -
28.03.2020 11:00:00 7,2 4,1 - - 24 13 - - NO 1024,9 10 -
28.03.2020 10:00:00 6,9 4,2 9,0 9,7 18 10 - - NO 1024,8 9 -
28.03.2020 09:00:00 6,8 3,8 - - 24 13 - - NO 1024,3 9 -
28.03.2020 08:00:00 6,7 3,8 - - 18 10 - - NO 1024,0 10 -
28.03.2020 07:00:00 6,7 3,6 - - 18 10 - - NO 1023,5 10 0,0
28.03.2020 06:00:00 6,6 3,4 - - 16 9 - - NO 1023,0 25 -
28.03.2020 05:00:00 6,4 2,4 - - 18 10 - - NO 1022,9 20 -
28.03.2020 04:00:00 6,4 2,5 - - 18 10 - - NO 1022,8 20 -
28.03.2020 03:00:00 7,2 3,2 - - 18 10 - - NNO 1023,1 10 -
28.03.2020 02:00:00 7,9 1,8 - - 16 9 - - NO 1022,8 15 -
28.03.2020 01:00:00 7,4 4,8 - - 9 5 - - NO 1022,9 10 0,0
28.03.2020 00:00:00 7,0 4,3 - - 8 4 - - NNO 1022,9 12 -
27.03.2020 23:00:00 7,2 3,8 - - 11 6 - - NNO 1022,8 10 -
27.03.2020 22:00:00 7,6 3,9 - - 13 7 - - N 1022,7 10 -
27.03.2020 21:00:00 7,5 3,9 - - 11 6 - - N 1022,6 9 -
27.03.2020 20:00:00 7,4 3,8 - - 9 5 - - N 1022,2 9 -
27.03.2020 19:00:00 8,7 3,3 - - 13 7 - - NNO 1021,7 10 0,0
27.03.2020 18:00:00 9,0 3,0 - - 15 8 - - NO 1021,2 10 -
27.03.2020 17:00:00 9,1 3,9 - - 21 11 - - NO 1021,3 12 -
27.03.2020 16:00:00 9,3 3,9 - - 21 11 - - NNO 1021,3 10 -
27.03.2020 15:00:00 9,6 4,3 - - 21 11 - - NO 1021,7 10 -
27.03.2020 14:00:00 9,7 4,5 - - 21 11 - - NO 1021,8 10 -
27.03.2020 13:00:00 9,7 5,0 - - 22 12 - - ONO 1022,3 10 0,0
27.03.2020 12:00:00 9,4 5,3 - - 18 10 - - NO 1022,4 10 -
27.03.2020 11:00:00 9,0 5,2 - - 21 11 - - NO 1022,3 10 -
27.03.2020 10:00:00 8,6 5,0 8,7 9,7 18 10 - - ONO 1022,1 8 -
27.03.2020 09:00:00 7,8 5,0 - - 18 10 - - NO 1021,8 8 -
27.03.2020 08:00:00 6,5 4,3 - - 13 7 - - ONO 1021,6 7 -
27.03.2020 07:00:00 6,1 3,6 - - 15 8 - - NO 1021,4 10 0,0
27.03.2020 06:00:00 6,0 4,0 - - 16 9 - - NO - 10 -
27.03.2020 05:00:00 6,2 3,8 - - 15 8 - - ONO 1020,9 10 -
27.03.2020 04:00:00 6,0 3,7 - - 13 7 - - ONO 1020,9 10 -
27.03.2020 03:00:00 5,9 3,1 - - 13 7 - - ONO 1021,2 10 -
27.03.2020 02:00:00 6,2 2,7 - - 16 9 - - ONO 1021,5 10 -
27.03.2020 01:00:00 6,1 2,1 - - 13 7 - - ONO 1021,2 10 0,0
27.03.2020 00:00:00 6,6 1,1 - - 21 11 - - ONO 1021,3 25 -
26.03.2020 23:00:00 6,7 0,6 - - 18 10 - - ONO 1021,6 25 -
26.03.2020 22:00:00 7,1 -0,7 - - 28 15 - - ONO 1021,4 10 -
26.03.2020 21:00:00 7,3 -1,6 - - 24 13 - - ONO 1021,2 10 -
26.03.2020 20:00:00 7,4 -1,5 - - 22 12 - - ONO 1020,4 25 -
26.03.2020 19:00:00 7,8 -1,4 - - 24 13 - - ONO 1019,9 10 0,0
26.03.2020 18:00:00 8,2 -0,9 - - 26 14 54 29 NO 1020,1 10 -
26.03.2020 17:00:00 8,5 -2,7 - - 34 18 54 29 NO 1019,7 18 -
26.03.2020 16:00:00 - - - - - - - - - - - -

tt = temperatuur
td = dauwpunt
tt -20cm = temperatuur -20cm
tt -100cm = temperatuur -100cm
ff = windsnelheid
fx = windstoten
dd = windrichting
ppp = luchtdruk
vv = zicht
rr = neerslag

Weerstations in de omgeving